Wind_Speed
1 1 1 1 1 2 1 1 2 2 2 2 2 1 1 1 2 2 2 2 2 2 2 1 1 1 0 1 2 2 3 3 3 3 3 4 4 4 4 3 3 3 3
1 1 1 1 1 1 0 0 0 1 1 1 1 0 1 1 1 1 2 2 1 1 1 1 0 1 1 1 2 2 3 4 4 4 4 4 5 5 4 4 4 4 4
2 1 1 1 1 0 1 1 1 0 0 0 0 1 1 1 1 1 1 1 1 1 1 1 1 1 1 2 2 3 4 4 5 5 5 5 5 5 5 5 5 5 6
2 2 2 1 1 1 2 2 2 2 2 1 1 1 2 2 2 2 2 2 2 2 2 2 2 2 2 3 3 4 4 5 5 6 6 6 6 6 6 6 7 7 7
2 3 3 2 2 2 3 3 3 3 3 3 3 3 3 3 3 4 4 4 4 4 4 4 4 4 4 4 4 5 5 5 6 7 8 8 8 8 8 8 8 9 9
3 3 3 4 3 3 4 4 4 4 4 5 5 5 5 6 6 6 6 6 6 6 6 6 6 6 6 6 6 6 6 7 7 8 9 10 10 10 10 10 10 10 11
3 3 4 4 4 4 4 4 5 5 6 6 7 7 7 7 8 8 8 8 8 8 8 8 9 9 9 9 9 9 9 9 9 9 10 11 12 12 12 12 12 12 13
4 4 4 4 5 5 6 6 6 7 8 8 9 9 9 10 10 10 11 10 10 10 10 10 11 11 11 12 12 12 12 12 11 12 12 12 13 14 14 14 14 14 14
5 5 5 6 7 7 7 7 8 8 9 9 10 10 11 12 12 12 13 13 12 12 12 13 13 14 14 13 13 13 14 14 14 14 14 14 15 15 15 16 16 16 16
4 5 6 6 7 7 8 9 9 10 11 11 12 12 13 13 14 14 15 15 14 15 15 15 15 15 16 16 16 16 16 16 16 16 16 16 17 17 17 17 18 18 18
4 4 5 5 6 6 8 9 10 11 11 12 13 14 14 15 15 14 14 15 16 17 17 17 17 18 19 19 18 19 19 19 19 19 19 19 19 19 19 20 20 20 20
4 4 5 6 6 8 9 10 10 11 12 13 14 15 15 15 16 16 15 16 16 18 18 19 20 20 20 21 20 20 20 21 21 21 21 22 21 21 21 21 21 21 22
5 5 6 7 8 9 10 11 12 12 13 14 14 15 15 15 16 17 17 17 18 19 19 20 20 21 21 21 21 22 22 22 23 23 23 23 23 23 22 23 23 23 24
6 6 7 9 9 10 11 11 12 13 14 14 15 15 16 16 17 17 18 19 19 19 19 20 21 20 20 21 22 23 23 24 24 24 25 25 24 24 24 24 25 25 26
7 7 8 9 10 10 11 11 12 13 14 15 16 16 17 18 18 18 19 19 19 20 20 21 21 20 20 22 23 23 24 25 25 26 27 26 26 26 26 27 27 28 28
8 8 8 9 10 11 12 12 13 13 14 15 16 17 18 18 18 19 19 19 19 20 21 22 23 23 23 22 22 23 24 25 26 27 28 29 29 29 29 29 29 30 30
8 8 9 10 11 11 12 13 14 15 16 16 17 18 19 20 20 20 20 20 21 21 21 21 22 22 23 23 23 23 24 26 27 28 29 29 30 31 31 32 32 32 32
8 9 10 11 12 12 13 14 15 16 17 18 18 19 19 20 20 20 21 21 22 22 22 23 23 24 24 25 25 25 26 27 27 28 29 29 30 32 33 33 33 33 34
10 10 10 11 12 13 14 14 15 16 17 18 19 20 19 20 19 20 21 21 22 23 23 23 24 25 26 26 27 27 27 27 27 27 29 30 30 30 32 33 34 34 35
10 11 11 12 13 14 15 15 15 16 17 18 19 18 19 20 20 20 21 21 22 23 24 24 25 26 26 27 28 28 28 28 29 29 30 32 32 31 32 33 34 34 35
11 12 12 12 13 14 15 15 16 17 18 18 19 19 20 20 21 22 22 22 23 23 24 25 26 26 27 28 29 29 29 29 30 31 31 32 32 32 33 34 34 34 35
12 13 13 13 14 15 15 16 17 18 19 19 20 20 20 21 22 23 23 23 23 23 24 25 26 27 27 29 29 30 30 30 31 31 31 32 32 33 34 35 35 36 36
14 13 14 14 15 15 17 17 18 18 19 19 20 20 21 21 22 22 23 23 23 23 24 25 26 27 28 28 29 30 30 30 30 31 31 31 32 33 34 34 35 36 38
14 14 15 16 16 17 17 17 18 18 18 19 20 20 20 20 21 21 21 22 23 23 24 24 25 26 26 27 28 29 30 30 31 31 32 32 33 34 34 34 35 36 37
15 15 16 17 17 18 17 17 18 19 19 20 20 20 20 21 21 21 21 22 23 23 23 24 25 25 27 28 28 28 29 29 30 30 32 33 34 34 35 35 35 36 37
16 17 17 17 18 18 18 18 18 19 19 20 20 20 21 21 21 21 22 22 23 23 24 25 25 26 27 27 28 28 29 30 31 32 33 34 34 35 36 36 37 37 37
Wind_Direction
78 111 126 111 105 92 102 113 86 77 83 100 103 80 66 75 74 62 63 67 78 77 82 74 60 34 41 189 184 194 201 198 195 199 201 203 206 211 218 228 237 239 245
109 91 141 138 116 104 125 132 101 76 97 110 111 77 43 37 45 25 36 48 64 67 76 67 25 327 285 262 239 224 224 219 216 218 217 219 221 225 232 238 243 245 248
163 135 128 149 144 187 220 206 204 244 240 132 304 299 330 351 349 340 344 356 357 331 334 329 326 312 282 276 262 252 247 234 229 227 226 229 232 235 239 244 246 249 251
198 192 187 216 241 255 245 241 242 256 265 268 271 278 291 305 303 296 299 304 297 285 283 290 298 296 286 282 272 263 250 241 240 236 236 239 241 242 246 250 252 255 255
240 227 213 216 245 258 252 253 259 260 262 268 266 262 266 272 278 281 288 288 288 282 273 277 284 284 279 277 272 263 259 257 254 249 247 248 249 249 250 253 256 258 259
254 234 225 222 233 248 256 257 256 258 261 263 265 262 261 264 267 271 280 282 283 280 271 272 276 277 271 271 269 268 268 265 263 260 257 256 256 256 256 257 259 260 261
253 244 248 231 235 245 253 253 251 258 264 266 267 268 265 266 269 270 274 276 277 275 272 271 273 271 269 269 270 269 269 268 267 266 264 260 259 259 260 261 261 262 263
248 243 251 247 248 251 253 258 259 260 262 268 272 271 265 269 271 269 269 270 272 274 271 271 272 271 271 270 270 271 270 269 269 267 267 265 264 262 261 261 261 262 264
255 254 264 260 256 254 258 262 265 265 265 268 272 271 267 267 270 269 267 266 268 270 270 270 271 274 273 271 269 269 269 269 269 267 268 268 267 265 264 262 261 263 264
263 269 270 264 260 255 261 265 267 270 268 268 270 271 271 270 270 270 269 267 266 269 270 269 270 275 274 271 270 271 270 268 268 270 268 268 267 267 265 263 263 265 266
275 272 274 275 266 265 266 268 272 274 275 274 274 274 275 272 271 270 271 272 270 270 269 269 270 272 273 273 271 270 271 270 268 269 270 268 267 267 268 266 265 266 267
279 278 281 281 281 279 274 271 274 278 279 279 276 276 278 275 272 270 270 270 272 272 270 270 271 271 272 272 272 271 271 270 269 269 269 267 267 267 267 267 267 267 268
285 288 292 285 287 287 282 278 279 280 279 278 279 280 281 282 277 272 272 271 272 273 273 273 273 273 274 273 272 271 269 269 269 268 269 269 268 267 268 268 268 269 270
294 290 293 293 294 296 289 284 280 279 280 281 283 283 284 283 282 277 275 273 273 274 273 274 274 275 275 275 272 271 271 271 270 269 268 267 268 268 267 268 269 270 270
297 292 294 294 294 298 297 293 290 286 285 285 285 284 283 283 283 282 281 279 278 277 277 277 276 275 277 276 274 274 275 274 271 269 265 265 267 268 268 268 269 270 270
297 296 296 296 296 298 295 295 293 293 292 290 289 289 288 289 286 282 282 280 279 279 278 277 277 277 276 278 276 277 278 277 277 273 268 267 267 268 269 269 269 270 270
307 302 302 301 301 301 299 295 293 292 292 291 291 291 290 288 286 282 280 280 279 278 278 278 280 280 278 278 277 276 276 277 278 274 272 272 270 268 268 268 269 268 268
310 305 302 303 303 301 298 296 294 293 292 292 293 292 291 289 287 284 281 280 280 281 281 278 279 280 280 279 279 278 277 278 278 276 273 273 273 271 268 268 269 268 267
317 309 305 304 304 303 301 300 299 299 299 297 295 292 292 291 289 288 287 285 284 285 285 281 279 280 281 279 280 280 278 279 280 279 277 275 276 276 274 272 271 270 270
322 316 310 306 306 304 302 302 304 303 301 299 297 297 296 295 294 293 292 289 289 287 285 283 282 282 282 281 282 281 281 280 280 279 279 278 277 278 277 275 272 272 271
320 318 317 313 309 306 307 305 304 304 303 301 300 299 299 299 298 296 294 291 290 288 287 286 285 284 283 282 282 281 281 282 282 280 279 278 278 278 277 275 273 273 273
319 318 316 316 312 309 309 309 308 306 304 302 301 300 300 300 300 298 296 294 293 292 290 288 287 286 285 283 282 281 281 281 281 280 279 278 278 278 277 277 276 275 275
319 319 317 316 315 312 311 311 311 309 307 306 305 303 302 301 302 302 299 297 297 296 294 292 290 288 287 284 283 282 281 280 281 281 279 279 279 279 278 278 278 279 278
318 317 316 315 315 314 313 314 313 311 310 309 309 307 305 305 303 303 302 301 301 300 298 295 294 292 291 288 286 285 284 282 282 281 280 280 281 282 283 283 283 283 282
319 318 316 316 316 315 314 313 311 308 309 310 310 311 309 308 305 304 303 302 302 301 300 300 299 298 296 292 290 288 285 286 285 284 283 283 284 284 285 285 284 283 282
319 317 316 316 316 316 314 314 313 312 313 312 312 311 310 309 308 307 306 304 302 301 300 301 301 301 301 298 295 292 290 289 288 286 284 284 285 285 286 286 285 284 283
Height
5907 5907 5907 5907 5907 5907 5906 5906 5906 5906 5907 5907 5906 5906 5905 5905 5904 5904 5903 5902 5902 5901 5901 5901 5900 5900 5899 5899 5898 5898 5898 5898 5898 5898 5898 5898 5898 5899 5899 5899 5898 5898 5898
5907 5907 5907 5907 5907 5907 5907 5907 5907 5907 5907 5907 5907 5906 5906 5905 5905 5904 5904 5903 5902 5902 5901 5901 5900 5900 5899 5899 5898 5898 5898 5898 5898 5898 5898 5898 5898 5898 5898 5898 5898 5898 5898
5907 5907 5907 5907 5907 5907 5907 5907 5907 5907 5907 5907 5907 5906 5906 5905 5905 5904 5904 5903 5902 5902 5901 5901 5900 5900 5899 5899 5898 5898 5898 5897 5897 5897 5897 5897 5897 5897 5897 5897 5897 5897 5897
5906 5906 5906 5907 5907 5907 5907 5907 5907 5907 5906 5906 5906 5906 5905 5905 5905 5904 5903 5903 5902 5902 5901 5901 5900 5899 5899 5898 5897 5897 5897 5896 5896 5896 5896 5896 5896 5896 5896 5896 5896 5896 5895
5906 5905 5905 5905 5906 5906 5906 5906 5906 5906 5906 5906 5905 5905 5905 5904 5904 5904 5903 5902 5902 5901 5900 5900 5899 5898 5898 5897 5897 5896 5895 5895 5895 5895 5895 5895 5895 5895 5894 5894 5894 5894 5894
5905 5905 5904 5904 5905 5905 5905 5905 5905 5905 5905 5905 5905 5904 5904 5903 5903 5903 5902 5901 5901 5900 5899 5899 5898 5897 5897 5896 5895 5895 5894 5894 5894 5894 5893 5893 5893 5893 5892 5892 5892 5892 5892
5904 5904 5903 5903 5903 5904 5903 5903 5904 5904 5904 5904 5903 5903 5903 5902 5902 5901 5901 5900 5899 5898 5898 5897 5896 5895 5895 5894 5894 5893 5892 5892 5892 5892 5891 5891 5890 5890 5890 5890 5890 5889 5889
5902 5902 5902 5902 5902 5902 5902 5902 5902 5902 5902 5902 5902 5901 5901 5901 5900 5899 5899 5898 5898 5897 5896 5895 5894 5893 5893 5892 5892 5891 5890 5890 5889 5889 5888 5888 5887 5887 5887 5887 5886 5886 5886
5900 5900 5900 5900 5900 5900 5900 5900 5900 5900 5900 5900 5899 5899 5898 5898 5898 5897 5896 5896 5895 5895 5894 5893 5892 5891 5890 5889 5888 5888 5887 5887 5886 5886 5885 5884 5884 5884 5883 5883 5883 5882 5882
5899 5899 5899 5899 5898 5898 5899 5898 5898 5898 5897 5897 5896 5896 5896 5895 5895 5894 5893 5893 5892 5891 5891 5890 5889 5888 5887 5886 5885 5885 5884 5883 5883 5882 5881 5881 5880 5880 5880 5879 5878 5878 5878
5897 5897 5897 5897 5897 5896 5896 5896 5896 5895 5895 5894 5893 5893 5892 5891 5891 5891 5890 5889 5888 5888 5887 5886 5885 5884 5883 5882 5881 5881 5880 5879 5879 5878 5877 5877 5876 5876 5875 5874 5874 5873 5873
5896 5895 5895 5895 5894 5894 5894 5894 5893 5892 5892 5891 5890 5889 5888 5887 5887 5886 5886 5885 5884 5883 5882 5882 5881 5879 5878 5878 5877 5876 5875 5874 5874 5873 5872 5871 5871 5871 5870 5869 5869 5868 5868
5894 5894 5893 5893 5892 5892 5891 5891 5890 5889 5888 5887 5886 5885 5884 5883 5882 5882 5881 5880 5879 5878 5877 5876 5875 5874 5873 5872 5871 5871 5870 5869 5868 5867 5866 5866 5865 5865 5864 5864 5863 5862 5862
5892 5891 5891 5891 5890 5889 5888 5887 5886 5886 5885 5884 5882 5881 5880 5879 5878 5877 5876 5875 5874 5873 5872 5871 5870 5868 5867 5866 5865 5865 5864 5862 5862 5861 5860 5859 5859 5858 5857 5857 5857 5856 5855
5890 5889 5889 5888 5887 5886 5885 5884 5883 5882 5881 5880 5879 5877 5876 5875 5873 5872 5871 5870 5869 5868 5867 5865 5864 5862 5861 5860 5859 5858 5857 5856 5855 5854 5853 5853 5852 5851 5851 5850 5849 5849 5848
5888 5887 5886 5885 5884 5883 5882 5881 5880 5879 5877 5876 5874 5873 5872 5870 5869 5868 5866 5865 5864 5863 5861 5860 5858 5857 5856 5854 5853 5851 5851 5849 5848 5847 5846 5845 5845 5844 5843 5842 5841 5841 5840
5885 5884 5883 5882 5881 5880 5879 5878 5876 5875 5873 5872 5870 5868 5867 5865 5864 5862 5861 5859 5858 5857 5856 5854 5852 5851 5849 5848 5847 5845 5844 5842 5841 5840 5839 5838 5837 5836 5835 5834 5833 5832 5831
5882 5881 5880 5879 5878 5877 5875 5874 5872 5871 5869 5867 5866 5864 5862 5860 5858 5856 5855 5853 5852 5850 5849 5848 5846 5844 5843 5842 5840 5839 5837 5836 5834 5832 5831 5829 5828 5827 5826 5824 5824 5823 5822
5880 5879 5878 5876 5875 5873 5872 5870 5868 5866 5865 5863 5861 5859 5857 5855 5853 5851 5849 5848 5846 5844 5843 5841 5840 5838 5836 5834 5833 5831 5830 5828 5826 5825 5823 5821 5820 5818 5817 5815 5814 5813 5812
5878 5876 5875 5873 5871 5870 5868 5866 5864 5862 5860 5858 5855 5853 5851 5849 5847 5845 5843 5841 5840 5838 5836 5835 5833 5831 5829 5827 5825 5823 5822 5820 5818 5816 5814 5812 5811 5809 5808 5806 5804 5803 5802
5875 5873 5871 5870 5868 5866 5864 5862 5859 5857 5855 5852 5850 5848 5846 5844 5842 5840 5837 5835 5834 5832 5830 5827 5825 5823 5821 5819 5817 5815 5814 5812 5810 5808 5806 5804 5802 5800 5799 5797 5795 5793 5792
5872 5870 5868 5866 5864 5862 5860 5857 5855 5852 5850 5847 5845 5843 5841 5838 5836 5833 5831 5829 5827 5825 5823 5820 5818 5816 5813 5811 5809 5807 5805 5803 5801 5800 5797 5795 5793 5791 5789 5787 5785 5783 5781
5869 5867 5865 5863 5860 5858 5855 5853 5850 5848 5845 5843 5840 5838 5835 5833 5830 5828 5825 5823 5820 5818 5816 5813 5811 5808 5805 5802 5800 5798 5796 5794 5792 5790 5788 5786 5783 5781 5779 5776 5774 5773 5771
5865 5863 5861 5859 5857 5854 5851 5849 5846 5843 5840 5838 5835 5832 5830 5827 5824 5822 5819 5817 5814 5812 5809 5806 5803 5800 5797 5794 5792 5790 5787 5785 5783 5781 5778 5776 5774 5771 5769 5767 5764 5762 5760
5862 5859 5857 5855 5853 5850 5847 5845 5842 5839 5836 5833 5830 5827 5824 5822 5819 5816 5814 5811 5808 5805 5802 5799 5796 5793 5790 5787 5784 5781 5779 5777 5774 5772 5769 5766 5764 5761 5759 5757 5754 5751 5749
5858 5856 5853 5851 5848 5846 5843 5840 5837 5834 5831 5828 5825 5822 5819 5816 5813 5810 5808 5805 5802 5799 5796 5793 5790 5787 5783 5780 5776 5774 5771 5768 5765 5762 5759 5757 5754 5751 5749 5746 5743 5741 5738